Wind_Speed
25 24 24 24 23 23 22 22 21 21 21 21 20 20 20 21 20 19 19 18 18 19 18 17 16 15 15 15 14 14 13 12 11 12 12 12 12 12 11 11 11 9
27 25 24 23 23 24 24 23 22 21 22 22 21 20 19 20 20 21 21 20 19 19 18 18 17 17 16 15 15 15 14 13 12 13 13 13 13 12 12 12 12 11
29 27 26 25 25 26 25 23 22 22 22 22 22 21 19 19 20 21 22 21 20 19 19 19 18 18 17 16 16 16 15 14 14 14 14 14 14 13 13 13 12 12
31 30 28 28 27 25 24 23 23 23 23 22 22 22 20 19 20 21 22 22 21 19 19 19 19 19 18 18 17 17 16 16 16 15 15 15 15 15 14 13 13 12
33 31 29 29 28 25 24 24 25 24 24 24 22 22 22 21 21 21 21 22 22 21 20 20 20 19 19 19 18 18 17 17 17 17 17 17 16 16 15 14 14 13
32 32 32 31 29 26 25 26 26 25 24 24 23 22 22 23 22 22 22 22 22 22 21 21 20 20 20 20 19 19 18 18 18 19 19 18 17 17 15 15 15 15
32 33 34 32 29 27 27 27 27 27 25 24 24 24 23 23 24 24 24 23 22 22 22 22 21 21 21 22 21 20 19 18 18 20 20 19 18 17 16 15 16 16
33 33 33 33 30 29 29 28 28 28 27 26 25 25 25 25 25 25 25 25 24 23 23 22 22 22 22 23 22 21 21 20 19 21 22 21 20 19 17 16 16 17
33 32 33 33 32 31 31 30 29 28 28 28 27 27 26 27 27 26 26 26 25 24 23 23 23 23 23 23 23 22 22 21 20 21 22 22 21 20 19 18 17 17
33 33 32 33 33 33 32 31 30 29 29 30 29 28 27 28 28 27 27 27 26 25 24 24 24 24 24 24 24 23 23 22 22 22 22 23 22 21 20 20 19 18
35 34 34 34 34 33 32 32 31 29 29 29 30 30 28 27 27 28 28 28 27 27 26 25 25 25 25 24 25 25 24 23 23 23 23 23 23 22 21 21 20 20
35 35 35 35 35 33 32 32 32 31 30 30 30 31 30 28 28 28 28 28 28 27 27 27 26 26 26 25 25 25 24 23 23 23 24 23 23 23 23 23 22 21
36 36 36 36 35 34 33 33 33 33 32 31 30 31 31 30 29 29 29 29 28 28 27 27 27 27 27 26 26 26 25 24 23 23 23 23 23 23 24 24 23 22
36 35 35 35 34 33 33 34 34 34 33 32 30 30 31 31 30 30 29 28 28 28 28 27 27 27 28 28 28 28 27 24 24 24 23 23 23 24 24 24 24 23
33 33 33 33 33 33 34 34 33 33 33 32 31 30 30 31 31 30 29 28 28 29 28 28 28 28 29 29 30 30 28 24 24 25 24 23 23 24 25 25 24 24
31 31 31 32 33 33 34 33 32 32 31 32 31 30 29 30 30 29 29 28 29 29 28 28 28 29 31 33 33 31 27 25 25 25 25 24 23 23 24 25 25 25
30 31 30 32 33 33 32 32 31 30 30 31 31 30 29 29 29 30 29 28 28 29 29 29 28 30 33 36 37 34 29 26 25 25 24 24 24 24 24 24 25 25
29 30 30 30 31 31 31 31 30 30 29 30 30 30 29 28 28 29 29 28 27 28 29 29 29 32 36 38 39 39 36 30 26 25 25 25 25 26 25 24 24 24
28 28 29 29 30 30 29 28 29 30 30 29 30 29 29 29 29 28 29 28 28 28 29 30 30 32 37 39 39 40 41 37 30 24 24 25 26 26 26 25 24 23
27 28 28 28 27 27 27 27 29 30 30 29 28 28 30 31 30 31 31 30 30 31 30 30 30 32 36 40 40 40 42 42 36 26 23 25 26 26 26 26 25 23
28 29 27 26 26 26 27 28 29 30 30 29 28 28 30 31 32 33 33 31 33 34 32 31 32 33 35 38 41 41 41 43 40 30 25 24 25 25 26 25 26 25
30 30 28 27 27 27 29 30 31 32 32 30 29 28 29 30 31 32 31 32 34 34 34 34 33 33 36 38 40 41 42 43 41 34 28 26 24 24 25 24 26 26
30 30 29 29 29 30 31 32 33 32 31 29 29 29 28 29 30 30 30 32 34 34 35 36 33 33 36 39 40 41 43 44 41 35 32 30 26 25 25 25 27 28
28 29 29 30 30 31 32 32 31 30 29 29 29 29 29 29 28 28 28 30 32 34 36 36 33 32 36 39 42 43 44 45 40 34 33 32 28 27 27 27 29 31
26 27 28 29 31 31 30 30 29 28 28 28 29 29 28 28 26 26 27 28 29 32 36 37 35 33 35 39 41 43 46 45 39 33 33 32 29 29 29 28 29 31
25 27 29 29 29 29 28 27 27 27 26 27 27 27 26 27 27 27 27 28 29 31 35 37 37 36 37 39 41 44 47 46 40 35 34 33 30 29 28 28 29 30
Wind_Direction
209 207 208 209 211 212 210 208 207 207 207 208 211 213 213 215 214 213 213 213 212 212 212 212 211 213 217 219 221 224 224 221 219 218 214 213 211 207 203 201 201 203
211 208 208 210 213 211 210 209 208 207 208 210 211 212 212 211 210 210 211 212 212 212 211 210 209 210 213 216 216 218 221 221 220 220 216 214 211 206 203 202 201 200
210 210 209 211 213 210 207 208 208 208 210 211 211 211 210 208 207 208 209 210 212 213 211 210 210 210 211 213 213 212 215 217 220 220 218 216 213 207 202 201 202 200
208 210 210 211 212 209 205 206 207 209 211 213 212 211 210 208 207 206 207 209 210 211 211 212 213 212 211 211 211 212 213 216 219 217 217 218 214 209 203 199 202 200
206 208 210 212 212 207 204 206 208 209 211 212 212 210 209 207 207 206 206 207 209 210 211 213 214 215 214 210 209 212 213 215 216 215 216 219 216 210 204 200 200 199
205 207 209 213 213 206 204 207 208 209 210 211 210 209 208 208 207 208 208 207 209 210 211 212 213 215 215 211 208 211 213 214 213 213 215 218 217 211 205 201 199 199
204 205 207 211 211 206 206 208 208 209 210 210 209 208 208 208 208 209 209 209 210 210 209 209 209 210 213 211 207 209 213 214 212 212 213 215 215 212 205 201 198 199
202 203 204 207 208 207 208 209 209 209 209 208 208 209 209 209 209 209 209 210 211 210 208 207 206 207 211 211 207 208 212 213 210 210 211 212 214 212 205 201 200 200
201 202 203 205 207 208 210 210 210 209 208 207 208 209 209 210 210 209 209 209 209 209 207 206 205 205 210 213 211 208 210 211 208 207 208 209 211 210 204 202 202 202
202 203 204 205 206 209 209 210 209 209 208 208 209 210 210 210 211 210 208 208 208 208 206 205 205 204 208 214 215 212 210 210 208 205 205 206 206 207 205 204 204 204
202 203 205 206 207 209 209 209 209 209 209 208 209 211 210 209 209 208 208 207 208 207 206 205 205 205 206 211 216 217 213 211 209 205 205 206 206 207 206 205 206 207
202 203 206 207 208 209 209 209 211 211 210 209 209 210 209 208 208 207 207 208 208 207 207 206 205 205 207 209 215 218 215 212 211 208 207 208 208 209 208 207 209 210
202 203 205 206 207 208 208 209 211 212 211 210 210 209 209 208 207 206 206 207 208 208 208 207 206 206 207 209 213 218 216 213 213 211 209 209 209 210 211 211 211 212
202 202 203 204 204 205 206 208 209 210 211 210 209 209 209 209 207 205 206 207 208 209 208 208 208 208 208 208 212 218 218 215 214 212 208 208 209 211 213 214 213 214
200 200 201 201 202 202 204 206 207 208 209 209 209 208 209 209 208 206 206 206 207 209 209 209 209 210 211 210 212 216 217 216 215 213 209 208 208 210 213 215 214 215
195 196 197 198 200 201 202 204 205 206 207 208 208 208 208 208 208 207 207 207 207 208 208 209 211 213 215 213 212 213 213 214 216 214 210 208 208 209 213 214 215 216
192 193 194 195 198 200 200 201 203 204 206 206 207 208 207 206 207 208 209 209 209 209 209 210 212 215 217 216 215 213 209 211 217 215 209 209 209 210 212 214 214 216
191 191 192 194 196 198 199 199 200 203 205 206 207 207 206 207 208 209 210 211 211 212 212 212 214 217 219 220 218 215 213 212 215 215 210 209 211 211 212 213 213 214
191 190 193 195 195 196 197 197 199 203 205 206 207 207 207 209 210 211 212 212 214 215 215 215 217 218 220 222 219 218 218 215 215 216 212 211 212 212 213 213 212 212
192 194 196 197 194 193 196 198 201 204 206 208 208 208 210 213 215 216 216 216 219 221 219 219 220 218 219 221 220 220 220 219 217 217 215 213 214 213 214 214 212 210
195 196 196 195 194 193 197 201 204 206 208 209 210 210 212 215 217 218 219 219 222 225 225 225 225 221 218 220 222 221 221 221 219 217 216 215 213 214 215 216 214 211
194 195 194 195 195 195 199 203 206 208 208 208 210 213 214 215 216 218 219 221 224 226 226 228 228 224 221 221 222 221 220 220 218 217 218 216 212 214 217 219 218 213
194 193 193 194 195 197 201 205 207 209 208 207 209 213 214 215 216 216 217 220 223 224 225 228 229 227 225 223 221 220 218 217 215 216 219 218 214 214 218 222 224 218
194 193 192 194 196 199 203 205 206 207 207 206 209 212 215 216 216 216 217 218 221 224 225 227 228 228 226 224 222 220 217 214 213 214 218 220 216 214 216 220 224 222
194 194 194 197 200 203 204 204 205 207 207 206 209 212 215 217 217 219 219 219 223 227 228 228 228 229 228 226 224 222 217 212 210 212 216 217 214 213 214 217 222 225
194 195 198 201 203 203 205 205 206 208 208 208 211 213 214 215 217 220 223 223 224 228 229 229 229 229 229 227 225 224 219 212 209 211 213 213 211 211 212 214 218 223
Height
793 794 796 798 800 802 804 805 807 809 810 812 814 815 817 818 820 822 823 824 826 827 829 830 832 833 834 835 836 838 839 840 841 842 843 844 845 846 847 848 849 851
789 791 793 795 797 798 799 802 804 805 807 809 810 812 814 815 817 819 820 822 823 825 826 828 829 831 832 833 834 835 837 838 839 840 841 842 843 844 845 846 848 849
784 786 788 790 792 794 795 798 800 802 804 805 807 809 810 812 814 815 817 819 821 822 824 825 827 828 829 831 832 832 834 836 837 838 839 840 841 842 843 844 846 847
779 782 784 786 789 790 792 795 797 798 800 802 803 806 807 809 811 812 814 815 817 819 821 823 824 826 827 828 829 830 831 833 835 836 837 838 839 840 841 842 844 845
774 777 780 783 785 787 788 790 792 794 796 798 800 802 804 806 807 809 811 812 814 816 818 820 822 823 824 825 826 827 829 830 832 833 835 836 837 838 838 840 841 843
769 772 775 779 781 782 784 786 788 790 793 795 797 799 801 802 804 806 807 809 810 812 814 816 818 820 821 822 823 824 825 827 828 830 832 833 835 835 836 837 838 840
764 767 770 774 776 777 779 782 784 786 789 791 793 795 797 798 800 801 803 805 807 809 810 812 814 816 818 819 820 821 822 824 825 827 829 830 832 833 833 834 836 837
758 762 765 768 771 773 775 778 780 782 784 787 789 791 792 794 796 797 799 801 803 805 807 809 810 812 815 816 816 817 819 821 822 823 825 827 829 830 830 832 833 834
753 756 759 763 765 768 770 773 775 777 780 782 784 786 788 789 791 793 795 797 799 801 803 805 807 808 811 813 813 814 815 817 818 820 821 823 825 826 827 829 830 831
748 751 754 757 759 762 764 767 770 772 775 776 779 781 783 785 787 789 791 792 795 797 799 801 803 805 807 809 810 811 812 813 815 816 817 819 820 822 823 825 827 828
742 745 748 750 753 756 759 762 765 767 769 771 773 776 778 780 782 784 786 788 790 793 795 797 799 801 803 805 807 808 809 810 811 812 813 815 816 818 819 821 823 825
735 739 742 744 747 751 754 757 760 762 764 766 768 770 773 775 777 779 782 784 786 789 791 793 795 797 799 801 803 805 805 806 808 809 810 811 813 814 815 817 819 821
728 732 735 738 742 745 749 752 754 756 758 760 763 765 768 770 772 774 777 779 782 784 787 789 791 793 794 796 799 801 802 802 804 805 806 807 809 810 812 813 815 817
722 726 729 733 737 740 743 745 748 751 753 756 758 760 762 765 767 769 772 775 777 779 782 784 786 788 790 791 794 797 798 798 800 801 802 804 805 806 808 809 811 813
718 722 725 729 732 735 737 740 743 746 749 751 754 755 758 760 763 765 767 770 772 775 777 779 781 783 784 786 789 792 793 794 796 798 799 800 801 802 804 805 807 809
714 717 720 724 727 729 732 735 739 742 744 747 749 751 754 756 759 761 763 765 767 770 772 774 776 777 778 781 784 786 789 791 792 794 795 796 797 798 799 801 802 804
710 712 715 718 721 724 728 731 735 738 740 743 745 747 750 752 754 757 758 761 763 765 767 768 769 771 773 776 778 781 784 786 788 790 790 792 793 794 795 796 798 800
705 708 711 714 717 720 724 727 731 734 736 739 741 743 746 748 750 752 754 757 759 760 761 762 763 764 767 770 773 776 779 781 784 785 785 787 788 789 790 792 793 796
702 704 707 710 713 717 721 724 727 730 732 735 737 740 743 745 747 749 751 753 754 755 756 757 758 759 760 763 767 770 773 776 778 780 780 782 784 785 786 787 789 791
699 701 704 707 710 714 718 721 724 726 728 731 734 736 739 740 743 745 746 748 749 751 752 752 752 753 755 758 761 764 767 770 773 775 776 777 779 780 782 783 784 786
693 696 700 704 707 711 714 717 719 721 723 726 729 731 733 735 737 739 740 742 745 747 748 747 747 748 750 752 754 757 761 765 769 771 772 773 774 776 777 779 780 782
687 691 695 698 702 706 708 711 712 714 717 720 723 726 728 729 731 733 734 738 740 742 742 742 742 744 745 746 749 752 756 760 764 766 767 768 769 771 773 775 776 777
681 685 688 692 696 698 701 703 705 708 712 715 718 720 722 724 725 727 729 732 734 735 736 736 737 739 741 742 743 747 751 754 758 761 762 763 764 765 768 770 772 772
678 681 684 687 690 692 694 696 700 703 707 710 712 715 716 718 721 723 725 726 728 729 730 731 732 734 736 738 739 741 745 748 752 756 757 757 758 759 761 764 766 767
675 678 680 683 685 687 689 692 696 699 702 704 707 709 711 714 716 718 719 720 722 724 726 727 728 728 731 733 734 737 739 742 747 750 750 750 751 753 755 757 760 762
671 674 676 678 680 683 686 689 692 695 698 700 702 704 707 709 711 713 714 715 717 719 721 722 723 723 724 726 728 732 734 737 741 742 741 742 744 746 749 751 754 757